Tracking 25963 objects as of 12-Aug-2022
HD Live streaming from Space Station
objects crossing your sky now

ISO

Track ISO now!
ISO is classified as:


NORAD ID: 23715
Int'l Code: 1995-062A
Perigee: 431.4 km
Apogee: 70,168.5 km
Inclination: 5.8 °
Period: 1,410.9 minutes
Semi major axis: 41670 km
RCS: 3.9811 m2 (large)
Launch date: November 17, 1995
Source: European Space Agency (ESA)
Launch site: FRENCH GUIANA (FRGUI)
aabbcc
Your satellite tracking list
Your tracking list is empty




NASA's NSSDC Master Catalog

Two Line Element Set (TLE):
1 23715U 95062A   22224.14983085 -.00000220  00000-0 -12251-2 0  9999
2 23715   5.7984  34.1779 8367592  58.1097 357.2393  1.02059352 99348
Source of the keplerian elements: AFSPC